St. Cloud, MN

8:03 AM CST on November 20, 2017 (GMT -0600)
Saint Cloud Regional

Weather History for KSTC - December, 2012

Change the Weather History Date:

Sunday, December 23, 2012

  Actual Average Record
Temperature  
Mean Temperature 11 °F 14 °F  
Max Temperature 19 °F 23 °F 52 °F (1899)
Min Temperature 3 °F 5 °F -30 °F (1983)
Degree Days  
Heating Degree Days 54 51  
Month to date heating degree days 986 1104  
Since 1 July heating degree days 2808 3029  
Cooling Degree Days 0 0  
Month to date cooling degree days 0 0  
Year to date cooling degree days 739 465  
Moisture  
Dew Point 5 °F    
Average Humidity 72    
Maximum Humidity 88    
Minimum Humidity 56    
Precipitation  
Precipitation 0.00 in 0.02 in 0.80 in (1900)
Month to date precipitation 1.43 0.61  
Year to date precipitation 24.94 27.52  
Snow  
Snow 0.00 in 0.30 in 8.00 in (1900)
Month to date snowfall 13.5 6.9  
Since 1 July snowfall 16.7 16.1  
Snow Depth 5.00 in    
Sea Level Pressure  
Sea Level Pressure 30.17 in    
Wind  
Wind Speed 4 mph (North)    
Max Wind Speed 14 mph    
Max Gust Speed 17 mph    
Visibility 10 miles    
Events      
T = Trace of Precipitation, MM = Missing Value Source: NWS Daily Summary

Daily Weather History Graph

Daily Weather History Graph

Search for Another Location

Airport or City:

Trip Planner

Search our weather history database for the weather conditions in past years. The results will help you decide how hot, cold, wet, or windy it might be!

Date:

Astronomy

Dec. 23, 2012 Rise Set
Actual Time 7:54 AM CST 4:36 PM CST
Civil Twilight 7:20 AM CST 5:11 PM CST
Nautical Twilight 6:42 AM CST 5:48 PM CST
Astronomical Twilight 6:06 AM CST 6:24 PM CST
Moon 1:33 PM CST (12/23) 3:31 AM CST (12/23)
Length of Visible Light 9h 50m
Length of Day
8h 42m
Waxing Gibbous, 82% of the Moon is Illuminated
Dec 23
Waxing Gibbous
Dec 28
Full
Jan 4
Last Quarter
Jan 11
New
Jan 18
First Quarter

Hourly Weather History & Observations

Time (CST) Temp. Windchill Dew Point Humidity Pressure Visibility Wind Dir Wind Speed Gust Speed Precip Events Conditions
12:40 AM 10.4 °F 2.2 °F 5.0 °F 79% 30.07 in 10.0 mi North 4.6 mph - N/A   Partly Cloudy
12:53 AM 10.0 °F 3.6 °F 5.0 °F 80% 30.17 in 10.0 mi NNW 3.5 mph - N/A   Partly Cloudy
1:14 AM 6.8 °F -2.0 °F 3.2 °F 85% 30.09 in 10.0 mi NW 4.6 mph - N/A   Mostly Cloudy
1:53 AM 9.0 °F -0.9 °F 5.0 °F 84% 30.17 in 10.0 mi North 5.8 mph - N/A   Overcast
2:25 AM 8.6 °F 2.0 °F 5.0 °F 85% 30.09 in 10.0 mi NNW 3.5 mph - N/A   Scattered Clouds
2:53 AM 9.0 °F 0.6 °F 5.0 °F 84% 30.19 in 10.0 mi North 4.6 mph - N/A   Partly Cloudy
3:53 AM 9.0 °F -0.9 °F 3.9 °F 80% 30.19 in 10.0 mi North 5.8 mph - N/A   Clear
4:53 AM 7.0 °F -1.7 °F 3.0 °F 84% 30.21 in 10.0 mi North 4.6 mph - N/A   Clear
5:53 AM 6.1 °F - 1.9 °F 83% 30.21 in 10.0 mi Calm Calm - N/A   Clear
6:53 AM 5.0 °F -2.1 °F 1.9 °F 87% 30.22 in 10.0 mi NW 3.5 mph - N/A   Clear
7:53 AM 3.9 °F - -0.0 °F 84% 30.23 in 10.0 mi Calm Calm - N/A   Partly Cloudy
8:53 AM 6.1 °F -0.9 °F 1.0 °F 80% 30.24 in 9.0 mi North 3.5 mph - N/A   Mostly Cloudy
9:10 AM 6.8 °F - 3.2 °F 85% 30.14 in 10.0 mi Calm Calm - N/A   Scattered Clouds
9:53 AM 9.0 °F 0.6 °F 3.9 °F 80% 30.23 in 10.0 mi NNE 4.6 mph - N/A   Clear
10:53 AM 12.0 °F -1.3 °F 6.1 °F 77% 30.22 in 10.0 mi NE 10.4 mph - N/A   Clear
11:53 AM 12.9 °F 1.6 °F 5.0 °F 71% 30.20 in 10.0 mi ENE 8.1 mph - N/A   Clear
12:53 PM 15.1 °F 5.2 °F 5.0 °F 64% 30.18 in 10.0 mi East 6.9 mph - N/A   Clear
1:53 PM 18.0 °F 7.7 °F 6.1 °F 60% 30.16 in 10.0 mi NE 8.1 mph - N/A   Clear
2:53 PM 18.0 °F 11.1 °F 5.0 °F 57% 30.17 in 10.0 mi NE 4.6 mph - N/A   Clear
3:53 PM 17.1 °F - 5.0 °F 59% 30.18 in 10.0 mi Calm Calm - N/A   Clear
4:53 PM 15.1 °F 7.7 °F 6.1 °F 68% 30.19 in 10.0 mi North 4.6 mph - N/A   Clear
5:53 PM 15.1 °F - 6.1 °F 68% 30.18 in 10.0 mi Calm Calm - N/A   Clear
6:53 PM 12.0 °F 5.9 °F 5.0 °F 73% 30.18 in 10.0 mi North 3.5 mph - N/A   Overcast
7:53 PM 12.9 °F 6.9 °F 6.1 °F 74% 30.16 in 10.0 mi North 3.5 mph - N/A   Overcast
8:53 PM 15.1 °F 7.7 °F 7.0 °F 70% 30.14 in 10.0 mi NNE 4.6 mph - N/A   Overcast
9:53 PM 15.1 °F 7.7 °F 7.0 °F 70% 30.13 in 10.0 mi North 4.6 mph - N/A   Overcast
10:53 PM 15.1 °F 7.7 °F 8.1 °F 74% 30.13 in 10.0 mi NNE 4.6 mph - N/A   Overcast
11:53 PM 15.1 °F 6.4 °F 8.1 °F 74% 30.12 in 10.0 mi NE 5.8 mph - N/A   Overcast